Regional Weather Roundup
Issued by NWS Cleveland, OH

Home | Current Version | Previous Version | Graphics & Text | Print | Product List | Glossary On
Versions: 1 2 3 4 5 6 7 8 9 10 11 12 13 14 15 16 17 18 19 20 21 22 23 24 25 26 27 28 29 30 31 32 33 34 35 36 37 38 39 40 41 42 43 44 45 46 47 48 49 50
000
ASUS41 KCLE 280300
RWRCLE
OHIO REGIONAL WEATHER ROUNDUP
NATIONAL WEATHER SERVICE WILMINGTON, OH
1000 PM EST SAT DEC 27 2014

NOTE: "FAIR" INDICATES FEW OR NO CLOUDS BELOW 12,000 FEET WITH NO
SIGNIFICANT WEATHER AND/OR OBSTRUCTIONS TO VISIBILITY.

OHZ001>008-015>018-024>027-034-035-043-044-280400-
   NORTHWEST OHIO

CITY           SKY/WX    TMP DP  RH WIND       PRES   REMARKS
DEFIANCE       LGT RAIN  39  34  82 W7        30.04S
FINDLAY        LGT RAIN  43  39  86 W17       30.03R FOG
TOLEDO EXPRESS LGT RAIN  40  36  86 W16G22    30.02R
TOLEDO METCALF LGT RAIN  43  36  76 W15G25    30.02R
LIMA           LGT RAIN  42  39  89 W20G25    30.05R FOG
$$

OHZ009>014-019>023-028>033-038-089-280400-
   NORTHEAST OHIO

CITY           SKY/WX    TMP DP  RH WIND       PRES   REMARKS
CLE-HOPKINS    CLOUDY    48  44  86 SW10      30.01F
CLE-LAKEFRONT  CLOUDY    50  44  80 SW17      29.98F
CUY CO. ARPT   CLOUDY    50  46  87 SW12G21   29.98F
LORAIN-ELYRIA  CLOUDY    47  44  90 SW12      29.99S
ASHTABULA      CLOUDY    47  42  83 S10       29.96F
AKRON-CANTON   CLOUDY    48  41  76 SW14      29.99F
WOOSTER        CLOUDY    46  45  93 SW8       30.00F
MANSFIELD      CLOUDY    46  45  96 SW12      30.00F
YOUNGSTOWN     LGT RAIN  47  41  80 SW10      29.99F
$$

OHZ042-051>053-060>062-070>072-077>081-280400-
  SOUTHWEST OHIO

CITY           SKY/WX    TMP DP  RH WIND       PRES   REMARKS
CINC-COVINGTON LGT RAIN  48  44  86 SW7       30.07R FOG
CINC-LUNKEN    LGT RAIN  47  47 100 W8        30.09R FOG
HAMILTON       LGT RAIN  48  47  96 W5        30.08S FOG
DAYTON         NOT AVBL
WRIGHT-PAT AFB NOT AVBL
DAYTON GENERAL LGT RAIN  47  46  97 W7        30.05S FOG
WILMINGTON     LGT RAIN  46  44  93 SW12      30.04S FOG
$$

OHZ036-037-039>041-045>050-054>059-063>069-073>076-082>088-280400-
  CENTRAL AND SOUTHEAST OHIO

CITY           SKY/WX    TMP DP  RH WIND       PRES   REMARKS
COLUMBUS       RAIN      47  45  93 SW8       30.04R FOG
OSU AIRPORT    LGT RAIN  48  46  93 SW9       30.04R FOG
BOLTON FIELD   NOT AVBL
RICKENBACK AFB CLOUDY    47  46  97 SW10      30.04R
NEWARK         LGT RAIN  47  45  93 S5        30.02F
MARION         CLOUDY    47  44  90 SW10      30.03R FOG
LANCASTER      RAIN      49  47  93 SW6       30.04F FOG
ZANESVILLE     LGT RAIN  46  44  93 SW3       30.02F FOG
NEW PHILLY     LGT RAIN  48  42  80 S3        30.03F
$$


USA.gov is the U.S. government's official web portal to all federal, state and local government web resources and services.